#timestamp,LO_Frequency,Hit,StdDev 
1588752015.7,286046995.4,P
1588752035.6,286046994.9,Y
1588752055.4,286047002.7,P
1588752075.2,286047002.8,N
1588752095.1,286047002.8,N
1588752096.0,286047002.8,N
1588752115.8,286047000.3,N
1588752135.7,286046998.7,N
1588752155.5,286046998.7,N
1588752175.3,286046997.8,N
1588752195.2,286046996.7,N
1588752215.0,286047001.1,N
1588752215.9,286047001.1,N
1588752235.7,286046998.4,N
1588752255.6,286046998.3,N
1588752275.4,286047000.4,N
1588752295.3,286046998.5,N
1588752315.1,286047001.2,N
1588752316.0,286047001.2,N
1588752335.8,286047000.1,N
1588752355.7,286046999.7,N
1588752375.5,286047000.9,N
1588752395.4,286046998.6,N
1588752415.2,286046998.3,N
1588752435.0,286047002.2,N
1588752435.9,286047002.2,N
1588752455.8,286047000.1,N
1588752475.6,286047001.6,N
1588752495.5,286047001.5,N
1588752515.3,286047002.1,N
1588752535.1,286047000.9,N
1588752555.9,286046998.4,N
1588752575.7,286047001.0,N
1588752595.5,286047000.1,N
1588752615.4,286047000.5,N
1588752635.2,286046998.5,N
1588752655.1,286047000.9,N
1588752656.0,286047000.9,N
1588752675.8,286046996.6,N
1588752695.6,286047000.9,N
1588752715.5,286046998.3,N
1588752735.3,286046999.9,N
1588752755.2,286046998.2,N
1588752775.9,286046999.9,N
1588752795.7,286047002.3,N
1588752815.6,286047000.1,N
1588752835.4,286046998.3,N
1588752855.2,286047000.9,N
1588752875.1,286047002.6,N
1588752876.0,286047002.6,N
1588752895.8,286047001.1,N
1588752915.7,286047002.6,N
1588752935.5,286047000.1,N
1588752955.3,286046999.9,N
1588752975.2,286047000.1,N
1588752995.0,286046998.7,N
1588752995.9,286046998.7,N
1588753015.8,286047001.6,N
1588753035.6,286047001.9,N
1588753055.4,286046999.9,N
1588753075.3,286047000.5,N
1588753095.1,286047001.7,N
1588753115.9,286047003.6,N
1588753135.7,286047005.6,Y
1588753155.5,286047003.3,P
1588753175.4,286047005.5,P
1588753195.2,286047004.6,N
1588753215.0,286047005.1,N
1588753215.9,286047005.1,N
1588753235.8,286047005.5,Y
1588753255.6,286047000.8,P
1588753275.5,286046998.6,N
1588753295.3,286047000.8,N
1588753315.1,286046998.7,N
1588753335.9,286046999.8,N
1588753355.7,286047001.7,N
1588753375.6,286047002.3,N
1588753395.4,286047003.8,N
1588753415.2,286047005.5,N
1588753435.1,286047004.0,N
1588753436.0,286047004.0,N
1588753455.8,286047001.7,N
1588753475.7,286047000.1,N
1588753495.5,286047000.0,N
1588753515.3,286047000.6,N
1588753535.2,286046999.9,N
1588753555.9,286047000.5,N
1588753575.7,286046998.9,N
1588753595.6,286046997.0,N
1588753615.4,286046997.0,N
1588753635.3,286046999.3,N
1588753655.1,286047000.1,N
1588753656.0,286047000.1,N
1588753675.8,286047003.4,N
1588753695.7,286047003.5,N
1588753715.5,286047006.0,N
1588753735.3,286047001.3,N
1588753755.2,286047002.7,N
1588753775.0,286047002.4,N
1588753775.9,286047002.4,N
1588753795.8,286047003.5,N
1588753815.6,286047004.5,N
1588753835.4,286047003.0,N
1588753855.3,286047003.2,N
1588753875.1,286047003.9,N
1588753895.9,286047003.4,N
1588753915.7,286047003.4,N
1588753935.5,286047003.9,N
1588753955.4,286047003.0,N
1588753975.2,286047001.9,N
1588753995.0,286047001.3,N
1588753996.0,286047001.3,N
1588754015.8,286047003.5,N
1588754035.6,286047001.7,N
1588754055.5,286047000.2,N
1588754075.3,286047004.3,N
1588754095.1,286047003.8,N
1588754115.9,286047003.0,N
1588754135.7,286047006.0,N
1588754155.6,286047003.7,N
1588754175.4,286047003.8,N
1588754195.2,286047002.8,N
1588754215.1,286047000.3,N
1588754216.0,286047000.3,N
1588754235.8,286047005.1,Y
1588754255.7,286047000.5,P
1588754275.5,286046999.5,N
1588754295.3,286046998.7,N
1588754315.2,286046998.2,N
1588754335.0,286047001.1,N
1588754335.9,286047001.1,N
1588754355.8,286047001.2,N
1588754375.6,286047001.1,N
1588754395.4,286046998.9,N
1588754415.3,286046997.6,N
1588754435.1,286046996.5,N
1588754455.8,286047001.0,N
1588754475.7,286046999.2,N
1588754495.5,286046998.1,N
1588754515.4,286046999.4,N
1588754535.2,286046998.2,N
1588754555.0,286046999.0,N
1588754555.9,286046999.0,N
1588754575.8,286047000.9,N
1588754595.6,286046998.3,N
1588754615.4,286046998.3,N
1588754635.3,286046998.5,N
1588754655.1,286047001.1,N
1588754675.9,286047000.1,N
1588754695.7,286047002.6,N
1588754715.5,286046999.9,N
1588754735.4,286046999.8,N
1588754755.2,286047008.3,Y
1588754775.1,286047006.8,P
1588754776.0,286047006.8,N
1588754795.8,286047003.2,N
1588754815.6,286047003.5,N
1588754835.5,286047003.7,N
1588754855.3,286047001.7,N
1588754875.1,286047000.1,N
1588754895.9,286046998.7,N
1588754915.7,286046999.8,N
1588754935.6,286047000.6,N
1588754955.4,286047000.2,N
1588754975.2,286046999.9,N
1588754995.1,286047002.7,N
1588754996.0,286047002.7,N
1588755015.8,286047001.5,N
1588755035.7,286047000.4,N
1588755055.5,286047000.8,N
1588755075.3,286046999.7,N
1588755095.2,286047001.2,N
1588755115.9,286047000.3,N
1588755135.7,286047000.5,N
1588755155.6,286046998.4,N
1588755175.4,286046999.0,N
1588755195.3,286046998.7,N
1588755215.1,286047000.1,N
1588755216.0,286047000.1,N
1588755235.8,286047000.0,N
1588755255.7,286047001.8,N
1588755275.5,286047002.7,N
1588755295.3,286047001.4,N
1588755315.2,286047002.6,N
1588755335.0,286046998.7,N
1588755335.9,286046998.7,N
1588755355.8,286046999.2,N
1588755375.6,286046998.3,N
1588755395.4,286047001.2,N
1588755415.3,286047000.7,N
1588755435.1,286046998.3,N
1588755455.9,286047000.9,N
1588755475.7,286047000.2,N
1588755495.5,286046999.4,N
1588755515.4,286047000.4,N
1588755535.2,286046999.8,N
1588755555.0,286046999.9,N
1588755555.9,286046999.9,N
1588755575.8,286047002.7,N
1588755595.6,286047002.7,N
